Flag for Austria Weather past 2 weeks in Murau, Styria, Austria

Now
59 °F

Broken clouds.


Feels Like: 59 °F
Forecast: 48 / 59 °F
Wind: 2 mph from North

Location: Zeltweg

Current Time: Sep 15, 2014 at 11:43:32 AM

Latest Report: Sep 15, 2014 at 10:50 AM


Visibility: 19 mi

Pressure: 30.09 "Hg

Humidity: 77%

Dew point: 52 °F

Location of MurauLocation

Historic Weather in Murau — Graph

°F

Murau temperature yesterday

Maximum temperature yesterday: 61 °F (at 1:50 PM)
Minimum temperature yesterday: 50 °F (at 4:50 AM)
Average temperature yesterday: 56 °F

Past Weeks' High & Low Weather Summary

 TemperatureHumidityPressure
High77 °F (Sep 8, 4:20 PM)100% (Aug 31, 6:20 PM)30.09 "Hg (Aug 31, 6:20 PM)
Low48 °F (Sep 1, 4:50 AM)41% (Sep 8, 3:50 PM)29.89 "Hg (Aug 31, 4:20 PM)
Average58 °F86%30.03 "Hg
* Reported Aug 31 10:20 AM — Sep 15 10:20 AM, Murau, Weather by CustomWeather, © 2014

Note: Actual official high and low records may vary slightly from our data, if they occured in-between our weather recording intervals... More about our weather records

Advertising

Murau weather history for previous 24 hours

 ConditionsComfort  
Time TempWeatherWind HumidityBarometerVisibility
10:20 AM
Sep 15
55 °FScattered clouds.3 mph82%30.09 "Hg16 mi
9:50 AM57 °FBroken clouds.1 mph82%30.09 "Hg12 mi
9:20 AM54 °FBroken clouds.2 mph88%30.09 "Hg12 mi
8:50 AM54 °FBroken clouds.5 mph88%30.07 "Hg12 mi
8:20 AM54 °FPartly sunny.3 mph88%30.07 "Hg9 mi
7:50 AM52 °FPartly sunny.3 mph94%30.07 "Hg7 mi
7:20 AM52 °FPassing clouds.5 mph94%30.07 "Hg6 mi
6:50 AM52 °FPassing clouds.3 mph94%30.07 "Hg6 mi
5:50 AM52 °FPassing clouds.2 mph94%30.07 "Hg6 mi
10:50 PM
Sep 14
55 °FLight rain. Passing clouds.3 mph94%30.07 "Hg6 mi
9:50 PM55 °FLight rain. Passing clouds.5 mph94%30.07 "Hg6 mi
8:50 PM55 °FPassing clouds.3 mph94%30.07 "Hg6 mi
7:50 PM55 °FScattered clouds.3 mph94%30.04 "Hg9 mi
6:50 PM59 °FScattered clouds.2 mph82%30.04 "Hg12 mi
5:50 PM59 °FScattered clouds.5 mph82%30.04 "Hg12 mi
5:20 PM61 °FBroken clouds.6 mph77%30.04 "Hg9 mi
4:50 PM61 °FBroken clouds.3 mph83%30.04 "Hg9 mi
4:20 PM61 °FBroken clouds.3 mph77%30.04 "Hg9 mi
3:50 PM61 °FBroken clouds.3 mph77%30.04 "Hg9 mi
3:20 PM61 °FBroken clouds.3 mph77%30.04 "Hg9 mi
2:50 PM61 °FScattered showers. Broken clouds.2 mph72%30.04 "Hg9 mi
2:20 PM59 °FScattered showers. Broken clouds.1 mph77%30.04 "Hg9 mi
1:50 PM61 °FBroken clouds.2 mph72%30.04 "Hg9 mi
1:20 PM57 °FLight rain. Partly sunny.3 mph88%30.04 "Hg9 mi
12:50 PM57 °FSprinkles. Partly sunny.1 mph82%30.07 "Hg4 mi
12:20 PM57 °FSprinkles. Partly sunny.1 mph77%30.07 "Hg9 mi
11:50 AM57 °FPartly sunny.2 mph82%30.04 "Hg9 mi
11:20 AM57 °FBroken clouds.2 mph82%30.07 "Hg9 mi
Weather by CustomWeather, © 2014

See weather overviewHow to use our weather pages